Location: Lafig�re
(44.4503°N, 4.0357°E)
Time: 16:23:53
(UTC+00:00)

SJ-6B - Pass Details

Date: 24 September 2020
Orbit: 511 x 580 km, 97.6° (Epoch: 20 October)

Event Time Altitude Azimuth Distance (km) Brightness Sun altitude
Exits shadow 18:48:16 23° 95° (E) 1,140 3.8 -13.5°
Maximum altitude 18:49:18 26° 68° (ENE) 1,047 3.8 -13.7°
Drops below altitude 10° 18:52:29 10° 11° (NNE) 1,767 5.4 -14.2°
Sets 18:54:50 0° 359° (N) 2,671 6.5 -14.6°
